EW2522 Weather Reports


Display with metric or nautical units.
time (UTC)temp
F
wind
direction
speed
MPH
gust
MPH
rain 1hr
in
rain 24hr
in
rain mn
in
humidity
%
barometer
mb
20260506101642 50 264 2.0 9.0 0.00 0.00 0.00 37 1009.4
20260506100743 50 226 4.0 17.0 0.00 0.00 0.00 38 1009.4
20260506095843 49 206 5.0 14.0 0.00 0.00 0.00 40 1009.2
20260506094942 48 210 5.0 14.0 0.00 0.00 0.00 40 1009.2
20260506094043 48 223 5.0 18.0 0.00 0.00 0.00 41 1009.2
20260506093142 48 223 7.0 18.0 0.00 0.00 0.00 41 1009.1
20260506092242 48 240 4.0 16.0 0.00 0.00 0.00 40 1009.1
20260506091342 47 243 5.0 14.0 0.00 0.00 0.00 42 1009.0
20260506090443 48 239 5.0 14.0 0.00 0.00 0.00 41 1009.0
20260506085542 47 238 3.0 16.0 0.00 0.00 0.00 44 1008.8
20260506084853 47 257 3.0 11.0 0.00 0.00 0.00 45 1008.8
20260506083742 46 266 2.0 8.0 0.00 0.00 0.00 46 1008.7
20260506082842 46 242 5.0 17.0 0.00 0.00 0.00 44 1008.7
20260506082155 46 247 2.0 17.0 0.00 0.00 0.00 45 1008.7
20260506081042 45 236 4.0 14.0 0.00 0.00 0.00 45 1008.6
20260506080142 45 251 3.0 12.0 0.00 0.00 0.00 48 1008.5
20260506072543 44 240 2.0 11.0 0.00 0.00 0.00 49 1008.4
20260506071642 44 243 5.0 14.0 0.00 0.00 0.00 50 1008.3
20260506070742 44 260 4.0 14.0 0.00 0.00 0.00 50 1008.2
20260506062243 42 239 4.0 12.0 0.00 0.02 0.00 63 1007.6
20260506061342 42 241 5.0 13.0 0.00 0.02 0.00 65 1007.6
20260506060442 41 221 4.0 14.0 0.00 0.03 0.00 64 1007.5
20260506051042 39 256 4.0 12.0 0.00 0.03 0.00 69 1007.1
20260506050142 39 245 2.0 9.0 0.00 0.03 0.00 70 1007.1
20260506044342 38 242 3.0 10.0 0.00 0.03 0.00 73 1007.0
20260506043443 38 260 3.0 10.0 0.00 0.03 0.00 74 1006.9
20260506042543 37 240 4.0 10.0 0.00 0.03 0.00 75 1006.9
20260506041642 36 247 2.0 7.0 0.00 0.03 0.00 76 1006.7
20260506040742 36 253 4.0 11.0 0.00 0.03 0.00 76 1006.7
20260506035842 36 230 4.0 9.0 0.00 0.03 0.00 77 1006.6
20260506034942 35 234 2.0 9.0 0.00 0.03 0.00 77 1006.5
20260506034042 35 237 3.0 9.0 0.00 0.03 0.00 77 1006.5
20260506033143 35 214 3.0 9.0 0.00 0.03 0.00 78 1006.3
20260506032453 34 244 2.0 8.0 0.00 0.03 0.00 78 1006.3
20260506031342 34 228 2.0 8.0 0.00 0.03 0.00 79 1006.2
20260506030442 34 246 3.0 8.0 0.00 0.03 0.00 79 1006.1
20260506025755 34 235 3.0 8.0 0.00 0.03 0.00 79 1006.0
20260506024642 34 254 4.0 8.0 0.00 0.03 0.00 79 1005.9
20260506023743 34 232 3.0 9.0 0.00 0.03 0.00 78 1005.8
20260506022843 34 224 4.0 8.0 0.00 0.03 0.00 78 1005.7
20260506022155 34 223 3.0 8.0 0.00 0.03 0.00 78 1005.6
20260506021043 34 251 4.0 10.0 0.00 0.03 0.00 77 1005.5
20260506020142 34 199 4.0 9.0 0.00 0.03 0.00 77 1005.4
20260506015456 34 220 3.0 9.0 0.00 0.03 0.00 76 1005.4
20260506014343 34 295 3.0 8.0 0.00 0.03 0.00 75 1005.4
20260506013442 34 241 3.0 9.0 0.00 0.03 0.00 75 1005.3
20260506012542 34 235 3.0 7.0 0.00 0.03 0.00 74 1005.3
20260506011642 34 31 1.0 5.0 0.00 0.03 0.00 74 1005.2
20260506010743 34 48 3.0 7.0 0.00 0.03 0.00 73 1005.2
20260506005843 34 231 1.0 6.0 0.00 0.03 0.00 72 1005.2
20260506004942 35 0 0.0 3.0 0.00 0.03 0.00 71 1005.1
20260506004042 35 256 1.0 4.0 0.00 0.03 0.00 71 1004.9
20260506003352 35 242 1.0 4.0 0.00 0.03 0.00 70 1004.9
20260506002455 35 4 1.0 4.0 0.00 0.03 0.00 70 1004.8
20260506001343 36 34 1.0 5.0 0.00 0.03 0.00 69 1004.8
20260506000442 36 216 1.0 7.0 0.00 0.03 0.00 69 1004.7
20260505235542 36 219 1.0 6.0 0.00 0.03 0.00 68 1004.7
20260505234642 36 245 1.0 6.0 0.00 0.03 0.00 68 1004.7
20260505233742 36 248 1.0 9.0 0.00 0.03 0.00 67 1004.6
20260505232843 36 229 1.0 6.0 0.00 0.03 0.00 66 1004.6
20260505231942 37 229 1.0 7.0 0.00 0.03 0.00 66 1004.6
20260505231042 37 231 1.0 4.0 0.00 0.03 0.00 65 1004.6
20260505225242 37 206 1.0 6.0 0.00 0.03 0.00 64 1004.5
20260505224554 38 233 1.0 6.0 0.00 0.03 0.00 63 1004.4
20260505223442 38 238 2.0 8.0 0.00 0.03 0.00 62 1004.5
20260505222543 38 246 2.0 7.0 0.00 0.03 0.00 62 1004.5
20260505221857 38 245 2.0 7.0 0.00 0.03 0.00 61 1004.4
20260505220742 38 241 1.0 9.0 0.00 0.03 0.00 61 1004.4
20260505220056 38 0 0.0 4.0 0.00 0.03 0.00 61 1004.4
20260505214943 38 230 1.0 9.0 0.00 0.03 0.00 61 1004.3
20260505214042 38 244 1.0 3.0 0.00 0.03 0.00 60 1004.3
20260505213143 37 217 1.0 4.0 0.00 0.03 0.00 60 1004.1
20260505212456 37 228 1.0 4.0 0.00 0.03 0.00 61 1004.1
20260505211343 36 0 0.0 4.0 0.00 0.03 0.00 62 1004.1
20260505210442 36 212 1.0 3.0 0.00 0.03 0.00 63 1003.9
20260505205543 36 0 0.0 3.0 0.00 0.03 0.03 64 1003.8
20260505204642 36 0 0.0 3.0 0.00 0.03 0.03 64 1003.7
20260505203742 35 0 0.0 1.0 0.00 0.03 0.03 65 1003.6
20260505202843 36 0 0.0 0.0 0.00 0.03 0.03 66 1003.6
20260505201942 36 0 0.0 0.0 0.00 0.03 0.03 66 1003.5
20260505201042 36 0 0.0 2.0 0.00 0.03 0.03 66 1003.4
20260505200357 37 0 0.0 2.0 0.00 0.03 0.03 66 1003.4
20260505195242 37 0 0.0 0.0 0.00 0.03 0.03 63 1003.3
20260505194343 38 0 0.0 1.0 0.00 0.03 0.03 63 1003.3
20260505193442 39 0 0.0 0.0 0.00 0.03 0.03 61 1003.3
20260505192542 39 0 0.0 0.0 0.00 0.03 0.03 60 1003.2
20260505191645 40 0 0.0 0.0 0.00 0.03 0.03 58 1003.1
20260505190956 41 0 0.0 0.0 0.00 0.03 0.03 57 1003.2
20260505185845 42 0 0.0 0.0 0.00 0.03 0.03 54 1003.1
20260505184942 42 0 0.0 0.0 0.00 0.03 0.03 52 1003.1
20260505184043 44 0 0.0 0.0 0.00 0.03 0.03 51 1003.0
20260505183142 44 0 0.0 0.0 0.00 0.03 0.03 48 1002.9
20260505182242 45 0 0.0 0.0 0.00 0.03 0.03 45 1002.8
20260505181343 45 0 0.0 0.0 0.00 0.03 0.03 44 1002.7
20260505180442 46 0 0.0 0.0 0.00 0.03 0.03 43 1002.7
20260505175542 46 0 0.0 0.0 0.00 0.03 0.03 42 1002.6
20260505174642 47 0 0.0 0.0 0.00 0.03 0.03 41 1002.5
20260505173954 47 0 0.0 4.0 0.00 0.03 0.03 40 1002.4
20260505172842 47 0 0.0 1.0 0.00 0.03 0.03 38 1002.3
20260505171942 48 280 1.0 6.0 0.00 0.03 0.03 37 1002.2
20260505171256 48 268 2.0 9.0 0.00 0.03 0.03 36 1002.2
20260505170142 48 255 2.0 11.0 0.00 0.03 0.03 36 1002.1
20260505165242 49 0 0.0 4.0 0.00 0.03 0.03 35 1002.0
20260505164342 49 250 3.0 10.0 0.00 0.03 0.03 35 1002.0
20260505163443 49 232 2.0 11.0 0.00 0.03 0.03 35 1001.9
20260505162542 49 236 3.0 15.0 0.00 0.03 0.03 34 1001.9
20260505161642 49 234 4.0 11.0 0.00 0.03 0.03 36 1001.8
20260505160742 49 238 6.0 17.0 0.00 0.03 0.03 36 1001.7
20260505153142 49 228 3.0 10.0 0.00 0.03 0.03 36 1001.4
20260505152242 49 232 4.0 15.0 0.00 0.03 0.03 35 1001.4
20260505151343 49 242 4.0 14.0 0.00 0.03 0.03 37 1001.3
20260505150442 49 191 1.0 6.0 0.00 0.03 0.03 38 1001.2
20260505140142 48 209 5.0 12.0 0.00 0.03 0.03 46 1000.8
20260505124942 48 269 2.0 9.0 0.00 0.03 0.03 44 1000.5
20260505124042 49 288 2.0 11.0 0.00 0.03 0.03 43 1000.4
20260505123142 49 261 5.0 15.0 0.00 0.03 0.03 47 1000.3
20260505122243 48 239 6.0 16.0 0.00 0.03 0.03 52 1000.5
20260505121343 48 195 6.0 19.0 0.00 0.03 0.03 55 999.9
20260505120442 48 207 6.0 13.0 0.00 0.03 0.03 56 999.9
20260505115542 47 230 5.0 13.0 0.00 0.03 0.03 55 999.9
20260505114856 46 225 5.0 13.0 0.00 0.03 0.03 58 999.9
20260505113742 46 245 4.0 13.0 0.00 0.03 0.03 58 999.9
20260505112842 48 273 3.0 10.0 0.00 0.03 0.03 55 999.9
20260505111942 48 219 4.0 12.0 0.00 0.03 0.03 57 999.7
20260505111042 47 229 5.0 15.0 0.00 0.03 0.03 60 999.5
20260505110142 46 231 5.0 15.0 0.00 0.03 0.03 61 999.6